Tracking 29510 objects as of 16-Sep-2024
HD Live streaming from Space Station
objects crossing your sky now

FENGYUN 1C DEB

Track FENGYUN 1C DEB now!
10-day predictions


NORAD ID: 30892
Int'l Code: 1999-025AYE
Perigee: 812.1 km
Apogee: 869.7 km
Inclination: 99.6 °
Period: 101.6 minutes
Semi major axis: 7211 km
RCS: 0.0064 m2 (small)
Launch date: May 10, 1999
Source: People's Republic of China (PRC)
Launch site: Taiyaun Space Center, China (TSC)

Note: This is SATELLITE DEBRIS
Your satellite tracking list
Your tracking list is empty




NASA's NSSDC Master Catalog

Two Line Element Set (TLE):
1 30892U 99025AYE 24258.44227621  .00004069  00000-0  20132-2 0  9995
2 30892  99.6494 156.2417 0039989  18.3141 341.9461 14.17518755578638
Source of the keplerian elements: AFSPC